When you browse on this site, cookies collect data to enhance your experience and personalize the content and advertising you see.
Visit our Privacy Policy to learn more. By continuing to use the site, you agree to this use of cookies and data.
  • In Sweden
  • List of Countries
  • For 7 days
  • Water Temperature
  • Satellite Maps
  • Weather Map
  • Weather Widgets
  • user-avatar
    Login

    Hourly Weather Baños

    Today, 20 May, Monday

    Time Temperature Precipitation Wind Pressure Humidity
    00:00 +9°C° 0.5 mm 1 mps 520 mmHg 91%
    01:00 +9°C° 0.5 mm 1 mps 520 mmHg 91%
    02:00 +9°C° 0.6 mm 1 mps 520 mmHg 90%
    03:00 +9°C° 0.6 mm 1 mps 519 mmHg 89%
    04:00 +9°C° 0.6 mm 1 mps 519 mmHg 89%
    05:00 +9°C° 0.6 mm 1 mps 519 mmHg 87%
    06:00 +9°C° 0.6 mm 1 mps 520 mmHg 85%
    07:00 +8°C° 0.6 mm 2 mps 520 mmHg 83%
    08:00 +10°C° 0.5 mm 2 mps 521 mmHg 80%
    09:00 +12°C° 0.5 mm 2 mps 522 mmHg 76%
    10:00 +13°C° 0.5 mm 3 mps 523 mmHg 72%
    11:00 +13°C° 0.8 mm 3 mps 523 mmHg 72%
    12:00 +14°C° 0.8 mm 2 mps 523 mmHg 71%
    13:00 +14°C° 0.8 mm 2 mps 522 mmHg 71%
    14:00 +14°C° 1.9 mm 2 mps 522 mmHg 72%
    15:00 +14°C° 1.9 mm 2 mps 521 mmHg 72%
    16:00 +14°C° 1.9 mm 1 mps 521 mmHg 73%
    17:00 +13°C° 2.3 mm 1 mps 521 mmHg 78%
    18:00 +12°C° 2.3 mm 1 mps 520 mmHg 83%
    19:00 +11°C° 2.3 mm 1 mps 520 mmHg 87%
    20:00 +11°C° 2.4 mm 1 mps 520 mmHg 89%
    21:00 +10°C° 2.4 mm 1 mps 521 mmHg 90%
    22:00 +10°C° 2.4 mm 1 mps 521 mmHg 91%
    23:00 +10°C° 2.5 mm 1 mps 521 mmHg 91%

    Tomorrow, 21 May, Tuesday

    Time Temperature Precipitation Wind Pressure Humidity
    00:00 +10°C° 2.5 mm 1 mps 520 mmHg 90%
    01:00 +9°C° 2.5 mm 1 mps 520 mmHg 90%
    02:00 +9°C° 1.8 mm 1 mps 520 mmHg 90%
    03:00 +9°C° 1.8 mm 1 mps 519 mmHg 90%
    04:00 +9°C° 1.8 mm 1 mps 519 mmHg 89%
    05:00 +8°C° 1.4 mm 2 mps 519 mmHg 90%
    06:00 +8°C° 1.4 mm 2 mps 519 mmHg 91%
    07:00 +8°C° 1.4 mm 2 mps 520 mmHg 91%
    08:00 +9°C° 0.9 mm 2 mps 520 mmHg 87%
    09:00 +10°C° 0.9 mm 2 mps 521 mmHg 84%
    10:00 +11°C° 0.9 mm 3 mps 522 mmHg 80%
    11:00 +12°C° 0.6 mm 3 mps 522 mmHg 78%
    12:00 +12°C° 0.6 mm 3 mps 522 mmHg 75%
    13:00 +13°C° 0.6 mm 3 mps 522 mmHg 73%
    14:00 +13°C° 0.7 mm 3 mps 521 mmHg 73%
    15:00 +14°C° 0.7 mm 2 mps 520 mmHg 73%
    16:00 +13°C° 0.7 mm 2 mps 520 mmHg 74%
    17:00 +12°C° 0.6 mm 2 mps 519 mmHg 78%
    18:00 +10°C° 0.6 mm 2 mps 519 mmHg 82%
    19:00 +10°C° 0.6 mm 1 mps 519 mmHg 86%
    20:00 +10°C° 0.4 mm 1 mps 519 mmHg 86%
    21:00 +9°C° 0.4 mm 2 mps 520 mmHg 85%
    22:00 +9°C° 0.4 mm 2 mps 520 mmHg 85%
    23:00 +8°C° 0.3 mm 2 mps 520 mmHg 86%

    Day after tomorrow, 22 May, Wednesday

    Time Temperature Precipitation Wind Pressure Humidity
    00:00 +8°C° 0.3 mm 2 mps 520 mmHg 86%
    01:00 +8°C° 0.3 mm 2 mps 520 mmHg 87%
    02:00 +8°C° 0.5 mm 2 mps 519 mmHg 87%
    03:00 +8°C° 0.5 mm 2 mps 519 mmHg 87%
    04:00 +8°C° 0.5 mm 2 mps 519 mmHg 86%
    05:00 +8°C° 0.6 mm 2 mps 519 mmHg 86%
    06:00 +8°C° 0.6 mm 2 mps 520 mmHg 87%
    07:00 +8°C° 0.6 mm 2 mps 520 mmHg 87%
    08:00 +9°C° 0.3 mm 3 mps 521 mmHg 84%
    09:00 +10°C° 0.3 mm 3 mps 522 mmHg 81%
    10:00 +11°C° 0.3 mm 3 mps 523 mmHg 78%
    11:00 +12°C° 0.2 mm 3 mps 523 mmHg 75%
    12:00 +13°C° 0.2 mm 3 mps 522 mmHg 72%
    13:00 +14°C° 0.2 mm 3 mps 522 mmHg 69%
    14:00 +14°C° 0.4 mm 3 mps 522 mmHg 70%
    15:00 +13°C° 0.4 mm 3 mps 521 mmHg 72%
    16:00 +13°C° 0.4 mm 3 mps 521 mmHg 73%
    17:00 +13°C° 0.3 mm 2 mps 520 mmHg 78%
    18:00 +12°C° 0.3 mm 2 mps 520 mmHg 83%
    19:00 +10°C° 0.3 mm 1 mps 520 mmHg 88%
    20:00 +10°C° 0.1 mm 1 mps 520 mmHg 88%
    21:00 +10°C° 0.1 mm 1 mps 520 mmHg 88%
    22:00 +8°C° 0.1 mm 2 mps 520 mmHg 88%
    23:00 +8°C° 0.1 mm 2 mps 520 mmHg 87%

    23 May, Thursday

    Time Temperature Precipitation Wind Pressure Humidity
    00:00 +8°C° 0.1 mm 2 mps 520 mmHg 86%
    01:00 +8°C° 0.1 mm 2 mps 520 mmHg 84%
    02:00 +8°C° 0.2 mm 2 mps 520 mmHg 84%
    03:00 +8°C° 0.2 mm 2 mps 519 mmHg 85%
    04:00 +8°C° 0.2 mm 2 mps 519 mmHg 85%
    05:00 +8°C° 0.1 mm 2 mps 519 mmHg 84%
    06:00 +8°C° 0.1 mm 2 mps 520 mmHg 84%
    07:00 +8°C° 0.1 mm 2 mps 520 mmHg 84%
    08:00 +10°C° 0.1 mm 2 mps 521 mmHg 80%
    09:00 +11°C° 0.1 mm 3 mps 522 mmHg 75%
    10:00 +13°C° 0.1 mm 3 mps 523 mmHg 71%
    11:00 +13°C° 0.2 mm 3 mps 523 mmHg 70%
    12:00 +13°C° 0.2 mm 3 mps 522 mmHg 70%
    13:00 +14°C° 0.2 mm 3 mps 522 mmHg 69%
    14:00 +13°C° 0.3 mm 3 mps 521 mmHg 70%
    15:00 +13°C° 0.3 mm 3 mps 521 mmHg 72%
    16:00 +13°C° 0.3 mm 3 mps 520 mmHg 73%
    17:00 +13°C° 0.2 mm 2 mps 520 mmHg 77%
    18:00 +12°C° 0.2 mm 2 mps 520 mmHg 82%
    19:00 +9°C° 0.2 mm 2 mps 520 mmHg 86%
    20:00 +9°C° 0.2 mm 2 mps 520 mmHg 86%
    21:00 +9°C° 0.2 mm 2 mps 520 mmHg 86%
    22:00 +9°C° 0.2 mm 2 mps 521 mmHg 86%
    23:00 +9°C° 0.5 mm 2 mps 521 mmHg 87%

    24 May, Friday

    Time Temperature Precipitation Wind Pressure Humidity
    00:00 +9°C° 0.5 mm 2 mps 520 mmHg 87%
    01:00 +9°C° 0.5 mm 2 mps 520 mmHg 88%
    02:00 +9°C° 1.1 mm 2 mps 520 mmHg 88%
    03:00 +9°C° 1.1 mm 2 mps 520 mmHg 88%
    04:00 +10°C° 1.1 mm 1 mps 519 mmHg 89%
    05:00 +9°C° 1.1 mm 2 mps 520 mmHg 89%
    06:00 +9°C° 1.1 mm 2 mps 520 mmHg 89%
    07:00 +9°C° 1.1 mm 2 mps 520 mmHg 89%
    08:00 +10°C° 1.2 mm 2 mps 521 mmHg 87%
    09:00 +10°C° 1.2 mm 2 mps 522 mmHg 84%
    10:00 +12°C° 1.2 mm 2 mps 522 mmHg 82%
    11:00 +12°C° 1.4 mm 2 mps 522 mmHg 83%
    12:00 +12°C° 1.4 mm 2 mps 521 mmHg 83%
    13:00 +12°C° 1.4 mm 2 mps 521 mmHg 84%
    14:00 +12°C° 1.1 mm 1 mps 520 mmHg 84%
    15:00 +12°C° 1.1 mm 1 mps 520 mmHg 83%
    16:00 +12°C° 1.1 mm 1 mps 520 mmHg 83%
    17:00 +11°C° 1.2 mm 1 mps 520 mmHg 85%
    18:00 +11°C° 1.2 mm 1 mps 520 mmHg 87%
    19:00 +10°C° 1.2 mm 1 mps 520 mmHg 89%
    20:00 +10°C° 1.2 mm 1 mps 520 mmHg 89%
    21:00 +10°C° 1.2 mm 1 mps 521 mmHg 89%
    22:00 +10°C° 1.2 mm 1 mps 521 mmHg 89%
    23:00 +10°C° 1.4 mm 1 mps 520 mmHg 89%

    25 May, Saturday

    Time Temperature Precipitation Wind Pressure Humidity
    00:00 +10°C° 1.4 mm 1 mps 520 mmHg 88%
    01:00 +10°C° 1.4 mm 1 mps 520 mmHg 88%
    02:00 +10°C° 1.2 mm 1 mps 520 mmHg 87%
    03:00 +10°C° 1.2 mm 1 mps 520 mmHg 87%
    04:00 +10°C° 1.2 mm 1 mps 519 mmHg 87%
    05:00 +10°C° 1.4 mm 1 mps 520 mmHg 87%
    06:00 +10°C° 1.4 mm 1 mps 520 mmHg 87%
    07:00 +10°C° 1.4 mm 1 mps 520 mmHg 87%
    08:00 +10°C° 1.1 mm 1 mps 521 mmHg 86%
    09:00 +10°C° 1.1 mm 2 mps 522 mmHg 84%
    10:00 +12°C° 1.1 mm 2 mps 522 mmHg 83%
    11:00 +12°C° 1.1 mm 2 mps 522 mmHg 82%
    12:00 +12°C° 1.1 mm 1 mps 522 mmHg 82%
    13:00 +12°C° 1.1 mm 1 mps 521 mmHg 81%
    14:00 +12°C° 1.4 mm 1 mps 521 mmHg 81%
    15:00 +12°C° 1.4 mm 1 mps 521 mmHg 81%
    16:00 +12°C° 1.4 mm 1 mps 520 mmHg 81%
    17:00 +11°C° 1 mm 1 mps 520 mmHg 84%
    18:00 +10°C° 1 mm 0 mps 520 mmHg 87%
    19:00 +9°C° 1 mm 0 mps 520 mmHg 90%
    20:00 +9°C° 0.7 mm 0 mps 520 mmHg 91%
    21:00 +9°C° 0.7 mm 0 mps 520 mmHg 91%
    22:00 +8°C° 0.7 mm 0 mps 521 mmHg 92%
    23:00 +8°C° 0.9 mm 0 mps 520 mmHg 91%
    Show more